This demonstration page uses our WeatherBlox Daily Observations layout. Learn more.

39.92423, -83.80882

Hourly Observations for May 9, 2016

Temp ( °F °C ) Dew Point ( °F °C ) Humidity (%) Winds ( mph kmh ) Pressure ( in mb ) Visibility ( mi km ) Precip ( " mm )
12:56 am 00:56 Mostly Cloudy 49 9.4 47 8.3 93 93 Calm 30.02 1017 10 16.0934 0 0
1:56 am 01:56 Mostly Cloudy 49 9.4 48 8.8 96 96 SE 3 6 30.02 1017 10 16.0934 0 0
2:56 am 02:56 Mostly Cloudy 49 9.4 48 8.8 96 96 SSE 3 6 30.02 1017 10 16.0934 0 0
3:56 am 03:56 Cloudy 51 10.5 48 8.8 89 89 Calm 30.01 1016 10 16.0934 0 0
4:56 am 04:56 Mostly Cloudy 50 10 50 10 100 100 NE 3 6 30.02 1017 10 16.0934 0 0.0254
5:46 am 05:46 Cloudy with Light Rain 50 10 50 10 100 100 Calm 30.06 1018 4 6.43736 0.05 1.27
5:56 am 05:56 Cloudy with Light Rain 50 10 50 10 100 100 Calm 30.04 1017 4 6.43736 0.07 1.778
6:26 am 06:26 Cloudy with Light Rain 50 10 50 10 100 100 S 5 7 30.09 1019 3 4.82802 0.05 1.27
6:41 am 06:41 Mostly Cloudy with Light Rain 50 10 50 10 100 100 S 8 13 30.09 1019 3 4.82802 0.07 1.778
6:56 am 06:56 Cloudy with Light Rain 50 10 50 10 100 100 ESE 5 7 30.06 1018 2 3.21868 0.11 2.794
7:08 am 07:08 Cloudy with Light Rain 50 10 50 10 100 100 E 8 13 30.09 1019 4 6.43736 0.03 0.762
7:56 am 07:56 Mostly Cloudy 50 10 49 9.4 96 96 SE 8 13 30.06 1018 10 16.0934 0.03 0.762
8:56 am 08:56 Cloudy with Light Rain 50 10 49 9.4 96 96 E 6 9 30.08 1019 10 16.0934 0.01 0.254
9:56 am 09:56 Cloudy 51 10.5 51 10.5 100 100 NE 7 11 30.1 1019 10 16.0934 0 0.0254
10:56 am 10:56 Cloudy 53 11.6 51 10.5 93 93 E 9 15 30.1 1019 10 16.0934 0 0
11:56 am 11:56 Mostly Cloudy 55 12.7 52 11.1 90 90 E 12 19 30.1 1019 10 16.0934 0 0
12:56 pm 12:56 Mostly Sunny 56 13.3 50 10 81 81 E 14 22 30.1 1019 10 16.0934 0 0
1:56 pm 13:56 Partly Cloudy 57 13.8 49 9.4 75 75 E 10 17 30.1 1019 10 16.0934 0 0
2:56 pm 14:56 Mostly Cloudy 58 14.4 49 9.4 72 72 E 13 20 30.1 1019 10 16.0934 0 0
3:56 pm 15:56 Cloudy 55 12.7 51 10.5 87 87 E 9 15 30.1 1019 9 14.48406 0 0.0254
4:56 pm 16:56 Mostly Cloudy 56 13.3 53 11.6 90 90 E 14 22 30.08 1019 10 16.0934 0.01 0.254
5:56 pm 17:56 Cloudy 56 13.3 52 11.1 87 87 E 14 22 30.07 1018 10 16.0934 0 0
6:56 pm 18:56 Sunny 56 13.3 52 11.1 87 87 E 12 19 30.07 1018 10 16.0934 0 0
7:56 pm 19:56 Mostly Cloudy 54 12.2 53 11.6 96 96 E 13 20 30.06 1018 9 14.48406 0.01 0.254
8:56 pm 20:56 Mostly Cloudy 53 11.6 53 11.6 100 100 E 12 19 30.06 1018 10 16.0934 0 0.0254
9:56 pm 21:56 Cloudy 53 11.6 53 11.6 100 100 E 14 22 30.06 1018 9 14.48406 0.01 0.254
10:56 pm 22:56 Mostly Cloudy 53 11.6 53 11.6 100 100 E 10 17 30.08 1019 10 16.0934 0 0
11:56 pm 23:56 Mostly Cloudy with Light Rain 52 11.1 52 11.1 100 100 E 12 19 30.07 1018 8 12.87472 0.01 0.254

Powered by AerisWeather